CAPE
0 0 0 0 0 0 0 0 0 0 0 0 0 0 0 0 0 0 0 0 0 0 0 0 0 88 268 603 877 755 895 995 1151 924 812 689 631 405 288 187 151 78 12 2
0 0 0 0 0 0 0 0 0 0 0 0 0 0 0 0 0 0 0 0 0 0 0 0 0 115 300 631 818 913 941 991 868 713 345 172 232 171 108 80 58 44 12 1
0 0 0 0 0 0 0 0 0 0 0 0 0 0 0 0 0 0 0 0 0 0 0 0 0 13 157 444 596 729 653 541 347 88 33 18 7 6 8 3 4 0 0 0
0 0 0 0 0 0 0 0 0 0 0 0 0 0 0 0 0 0 0 0 0 0 0 0 0 0 0 0 3 40 65 45 20 5 2 0 0 0 0 0 0 0 0 0
0 0 0 0 0 0 0 0 0 0 0 0 0 0 0 0 0 0 0 0 0 0 0 0 0 0 0 0 0 0 0 0 0 0 0 0 0 0 0 0 0 0 0 0
0 0 0 0 0 0 0 0 0 0 0 0 0 0 0 0 0 0 0 0 0 0 0 0 0 0 0 0 0 0 0 0 0 0 0 0 0 0 0 0 0 0 0 0
0 0 0 0 0 0 0 0 0 0 0 0 0 0 0 0 0 0 0 0 0 0 0 0 0 0 0 0 0 0 0 0 0 0 0 0 0 0 0 0 0 0 0 0
0 0 0 0 0 0 0 0 0 0 0 0 0 0 0 0 0 0 0 0 0 0 0 0 0 0 0 0 0 0 0 0 0 0 0 0 0 0 0 0 0 0 0 0
0 0 0 0 0 0 0 0 0 0 0 0 0 0 0 0 0 0 0 0 0 0 0 0 0 0 0 0 0 0 0 0 0 0 0 0 0 0 0 0 0 0 0 0
0 0 0 0 0 0 0 0 0 0 0 0 0 0 0 0 0 0 0 0 0 0 0 0 0 0 0 0 0 0 0 0 0 0 0 0 0 0 0 0 0 0 0 0
0 0 0 0 0 0 0 0 0 0 0 0 0 0 0 0 0 0 0 0 0 0 0 0 0 0 0 0 0 0 0 0 0 0 0 0 0 0 0 0 0 0 0 0
0 0 0 0 0 0 0 0 0 0 0 0 0 0 0 0 0 0 0 0 0 0 0 0 0 0 0 0 0 0 0 0 0 0 0 0 0 0 0 0 0 0 0 0
0 0 0 0 0 0 0 0 0 0 0 0 0 0 0 0 0 0 0 0 0 0 0 0 0 0 0 0 0 0 0 0 0 0 0 0 0 0 0 1 1 0 0 0
0 0 0 0 0 0 0 0 0 0 0 0 0 0 0 0 0 0 0 0 0 0 0 0 0 0 0 0 0 0 0 0 0 0 0 0 0 0 9 21 2 0 0 0
0 0 2 0 0 0 2 1 0 0 0 0 0 0 0 0 0 0 0 0 0 0 0 0 0 0 0 0 0 0 0 0 0 0 0 0 0 0 5 36 25 1 0 0
0 0 0 0 0 0 0 0 0 0 0 0 0 0 0 0 0 0 0 0 0 0 0 0 0 0 0 0 0 0 0 0 0 0 0 0 0 0 16 9 10 10 7 0
0 0 0 0 1 1 0 0 1 0 0 0 0 0 0 0 0 0 0 0 0 0 0 0 0 0 0 0 0 0 0 0 0 0 0 0 5 8 22 0 11 13 8 0
0 0 0 0 0 0 0 0 0 0 0 0 0 0 0 0 0 0 0 0 0 0 0 0 0 0 0 0 0 0 0 0 0 0 0 1 1 3 5 20 0 4 0 0
0 0 0 0 0 0 0 0 0 0 0 0 0 0 0 0 0 0 0 0 0 0 0 0 0 0 0 0 0 0 0 0 0 0 0 0 0 0 0 0 0 1 0 0
1 0 1 0 0 0 0 0 0 0 0 0 0 0 0 0 0 0 0 0 0 0 0 0 0 0 0 0 0 0 0 0 0 0 0 0 0 0 0 0 0 0 0 0
2 1 0 0 0 0 0 0 0 0 0 0 0 0 0 0 0 0 0 0 0 0 0 0 0 0 0 0 0 0 0 0 0 0 0 0 0 0 0 0 0 0 0 0
0 0 0 0 0 0 0 0 0 0 0 0 0 0 0 0 0 0 0 0 0 0 0 0 0 0 0 0 0 0 0 0 0 0 0 0 0 0 0 0 0 0 0 0
0 0 0 0 0 0 0 0 0 0 0 0 0 0 0 0 0 0 0 0 0 0 0 0 0 0 0 0 0 0 0 0 0 0 0 0 0 0 0 0 0 0 0 0
0 0 0 0 0 0 0 0 0 0 0 0 0 0 0 0 0 0 0 0 0 0 0 0 0 0 0 0 0 0 0 0 0 0 0 0 0 0 0 0 0 0 0 0
0 0 0 0 0 0 0 0 0 0 0 0 0 0 0 0 0 0 0 0 0 0 0 0 0 0 0 0 0 0 0 0 0 0 0 0 0 0 0 0 0 0 0 0
0 0 0 0 0 0 0 0 0 0 0 0 0 0 0 0 0 0 0 0 0 0 0 0 0 0 0 0 0 0 0 0 0 0 0 0 0 0 0 0 0 0 0 0
CIN
0 0 0 0 0 0 0 0 0 0 0 0 0 0 0 0 0 0 0 0 0 0 0 0 0 -521 -320 -255 -198 -189 -131 -117 -83 -77 -47 -42 -24 -32 -56 -76 -76 -131 -165 -141
0 0 0 0 0 0 0 0 0 0 0 0 0 0 0 0 0 0 0 0 0 0 0 0 0 -488 -349 -261 -194 -147 -117 -80 -58 -49 -80 -91 -74 -67 -72 -46 -78 -82 -149 -80
0 0 0 0 0 0 0 0 0 0 0 0 0 0 0 0 0 0 0 0 0 0 0 0 0 -577 -389 -268 -194 -150 -111 -85 -109 -174 -228 -149 -101 -86 -77 -99 -54 0 0 0
0 0 0 0 0 0 0 0 0 0 0 0 0 0 0 0 0 0 0 0 0 0 0 0 0 0 0 0 -50 -294 -243 -243 -314 -56 -56 0 0 0 0 0 0 0 0 0
0 0 0 0 0 0 0 0 0 0 0 0 0 0 0 0 0 0 0 0 0 0 0 0 0 0 0 0 0 0 0 0 0 0 0 0 0 0 0 0 0 0 0 0
0 0 0 0 0 0 0 0 0 0 0 0 0 0 0 0 0 0 0 0 0 0 0 0 0 0 0 0 0 0 0 0 0 0 0 0 0 0 0 0 0 0 0 0
0 0 0 0 0 0 0 0 0 0 0 0 0 0 0 0 0 0 0 0 0 0 0 0 0 0 0 0 0 0 0 0 0 0 0 0 0 0 0 0 0 0 0 0
0 0 0 0 0 0 0 0 0 0 0 0 0 0 0 0 0 0 0 0 0 0 0 0 0 0 0 0 0 0 0 0 0 0 0 0 0 0 0 0 0 0 0 0
0 0 0 0 0 0 0 0 0 0 0 0 0 0 0 0 0 0 0 0 0 0 0 0 0 0 0 0 0 0 0 0 0 0 0 0 0 0 0 0 0 0 0 0
0 0 0 0 0 0 0 0 0 0 0 0 0 0 0 0 0 0 0 0 0 0 0 0 0 0 0 0 0 0 0 0 0 0 0 0 0 0 0 0 0 0 0 0
0 0 0 0 0 0 0 0 0 0 0 0 0 0 0 0 0 0 0 0 0 0 0 0 0 0 0 0 0 0 0 0 0 0 0 0 0 0 0 0 0 0 0 0
0 0 0 0 0 0 0 0 0 0 0 0 0 0 0 0 0 0 0 0 0 0 0 0 0 0 0 0 0 0 0 0 0 0 0 0 0 0 0 0 0 0 0 0
0 0 0 -0 0 0 0 0 0 0 0 0 0 0 0 0 0 0 0 0 0 0 0 0 0 0 0 0 0 0 0 0 0 0 0 0 0 0 0 -20 -30 0 0 0
0 0 0 -0 -1 0 0 0 0 0 0 0 0 0 0 0 0 0 0 0 0 0 0 0 0 0 0 0 0 0 0 0 0 0 0 0 0 0 -100 -78 -57 0 0 0
0 0 -0 0 0 -3 -2 -0 0 -0 0 0 0 0 0 0 0 0 0 0 0 0 0 0 0 0 0 0 0 0 0 0 0 0 0 0 0 0 -117 -89 -96 -23 0 0
0 0 0 0 0 0 0 0 0 0 0 0 0 0 0 0 0 0 0 0 0 0 0 0 0 0 0 0 0 0 0 0 0 0 0 0 0 -10 -67 -95 -94 -129 -122 -37
0 0 0 0 0 0 0 0 0 0 0 0 0 0 0 0 0 0 0 0 0 0 0 0 0 0 0 0 0 0 0 0 0 0 0 0 -63 -51 -52 -11 -113 -117 -118 0
0 0 0 0 0 0 0 0 0 0 0 0 0 0 0 0 0 0 0 0 0 0 0 0 0 0 0 0 0 0 0 0 0 0 0 -28 -27 -53 -38 -65 -3 -71 -38 -51
0 0 0 0 0 0 0 0 0 0 0 0 0 0 0 0 0 0 0 0 0 0 0 0 0 0 0 0 0 0 0 0 0 0 0 0 0 0 0 0 0 -15 0 0
0 0 0 0 0 0 0 0 0 0 0 0 0 0 0 0 0 0 0 0 0 0 0 0 0 0 0 0 0 0 0 0 0 0 0 0 0 0 0 0 0 0 0 0
0 0 0 0 0 0 0 0 0 0 0 0 0 0 0 0 0 0 0 0 0 0 0 0 0 0 0 0 0 0 0 0 0 0 0 0 0 0 0 0 0 0 0 0
0 0 0 0 0 0 0 0 0 0 0 0 0 0 0 0 0 0 0 0 0 0 0 0 0 0 0 0 0 0 0 0 0 0 0 0 0 0 0 0 0 0 0 0
0 0 0 0 0 0 0 0 0 0 0 0 0 0 0 0 0 0 0 0 0 0 0 0 0 0 0 0 0 0 0 0 0 0 0 0 0 0 0 0 0 0 0 0
0 0 0 0 0 0 0 0 0 0 0 0 0 0 0 0 0 0 0 0 0 0 0 0 0 0 0 0 0 0 0 0 0 0 0 0 0 0 0 0 0 0 0 0
0 0 0 0 0 0 0 0 0 0 0 0 0 0 0 0 0 0 0 0 0 0 0 0 0 0 0 0 0 0 -2 0 0 0 0 0 0 0 0 0 0 0 0 0
0 0 0 0 0 0 0 0 0 0 0 0 0 0 0 0 0 0 0 0 0 0 0 0 0 0 0 0 0 0 0 0 0 0 0 0 0 0 0 0 0 0 0 0
Wind_Speed
11 10 2 2 9 14 22 22 23 21 23 24 23 28 32 33 29 16 10 10 7 4 6 9 10 10 10 2 1 3 3 5 6 10 14 17 19 19 18 19 20 21 23 24
10 4 13 16 27 3 12 20 26 26 24 28 33 37 37 33 22 16 12 18 7 3 4 8 10 11 11 8 6 5 6 7 8 12 16 19 21 22 22 21 21 23 24 25
2 8 8 4 16 17 23 17 25 26 31 25 33 36 35 36 31 35 22 10 4 4 4 6 9 11 11 10 9 8 9 9 11 14 17 20 21 23 25 24 24 27 29 28
3 15 5 7 7 15 20 15 17 26 32 24 26 31 37 33 30 22 19 9 6 5 4 5 7 9 10 11 10 10 10 10 12 14 19 21 23 26 25 26 27 29 30 31
9 8 2 4 3 13 17 18 24 28 31 32 29 22 30 29 32 21 15 9 5 3 3 4 6 8 9 8 9 8 9 11 14 16 19 22 25 27 28 28 29 29 29 27
16 16 13 9 15 9 21 25 27 26 23 26 25 18 21 27 25 19 14 8 4 3 4 5 5 7 8 8 9 11 13 16 17 19 23 24 28 29 27 27 28 28 28 28
20 24 20 17 16 19 18 22 27 26 22 22 22 29 20 27 28 15 7 5 3 3 4 4 6 8 8 10 12 14 16 19 20 22 26 28 29 26 24 25 25 27 27 27
23 25 18 16 14 19 17 16 20 30 29 33 30 27 29 29 26 12 4 2 3 5 6 6 8 10 12 14 15 17 19 22 24 27 31 29 27 23 23 24 26 26 24 21
23 22 17 15 16 16 20 19 20 28 28 33 28 27 26 22 17 11 5 5 7 8 9 11 13 12 14 16 19 20 21 23 28 32 30 28 26 26 26 23 22 23 22 23
23 30 26 26 22 21 21 22 27 26 35 36 29 28 24 19 16 12 10 10 10 11 12 12 14 16 18 18 20 21 23 27 31 32 30 27 26 26 25 23 24 24 21 20
21 23 26 25 21 22 25 27 25 26 26 34 39 30 17 15 17 15 12 11 12 13 15 15 16 17 18 20 22 24 28 29 30 29 28 29 29 27 23 23 22 23 21 19
23 27 32 28 25 25 26 28 25 29 32 30 32 35 23 22 17 12 12 12 14 16 16 16 18 20 22 24 28 32 31 29 27 27 29 30 29 28 26 23 23 22 21 18
20 29 38 34 28 26 29 27 26 30 31 32 33 33 20 17 17 13 14 16 19 20 20 22 22 23 26 29 31 31 29 27 26 29 29 29 29 27 26 24 23 21 19 17
22 31 34 37 33 30 33 29 27 27 31 35 36 37 30 23 19 17 18 19 23 25 25 24 22 23 24 27 29 30 29 28 31 32 32 31 30 28 25 24 21 19 15 14
24 38 34 36 36 35 37 34 34 37 34 37 38 36 31 26 25 29 26 25 26 27 23 21 22 24 26 28 29 30 33 34 34 35 35 33 34 29 26 24 20 18 13 15
27 37 36 41 36 35 40 37 34 34 35 38 41 44 33 37 33 31 29 26 26 23 22 22 23 25 26 28 29 33 36 37 37 38 39 39 35 30 29 23 20 16 12 11
30 32 34 43 35 35 42 37 35 34 33 33 38 38 40 34 31 30 27 27 24 21 20 21 23 25 28 30 31 34 35 36 37 38 37 36 34 29 27 31 18 14 11 9
31 32 33 40 31 43 37 28 25 26 28 28 32 34 34 34 30 28 24 20 17 16 19 21 24 27 28 29 30 33 35 35 37 37 38 35 32 26 32 29 22 22 17 12
29 30 36 39 40 42 43 31 28 28 38 28 30 33 33 25 21 24 18 15 14 17 20 23 26 27 28 30 32 33 34 36 38 40 40 34 28 29 32 27 26 22 18 17
31 31 36 36 42 45 38 27 23 23 43 27 28 29 23 20 28 25 16 16 18 19 23 27 28 29 32 32 30 31 34 37 40 42 39 31 28 37 35 26 25 27 24 15
33 36 42 44 45 43 35 26 23 38 43 25 23 22 20 23 22 15 15 18 20 23 26 30 33 36 36 33 29 31 36 39 39 35 30 28 29 33 28 26 26 27 25 22
38 38 40 39 46 51 29 28 33 32 24 21 20 19 18 15 16 16 17 20 24 29 32 35 34 34 31 28 29 34 37 37 34 31 28 29 29 26 21 22 23 22 20 18
42 36 38 36 37 29 26 27 27 24 23 20 17 17 16 16 17 17 20 23 27 31 32 28 30 30 31 32 33 36 35 30 32 26 28 28 24 22 22 23 21 21 16 13
33 30 36 34 35 31 28 26 23 20 18 17 16 17 17 19 19 21 23 27 30 29 27 28 29 32 34 36 36 33 26 23 24 29 30 26 24 22 21 19 18 18 16 11
31 24 32 37 33 27 25 23 20 17 17 17 17 18 19 20 23 24 25 27 27 26 26 28 30 32 34 34 33 29 23 23 26 29 25 16 14 18 18 17 18 17 17 7
31 34 35 39 32 30 26 21 18 17 17 17 17 19 19 20 21 23 24 25 26 27 28 30 32 32 32 30 31 29 28 27 25 30 10 4 12 14 15 16 16 17 18 12
Wind_Direction
330 329 329 93 330 319 303 304 304 313 310 314 313 297 275 273 305 321 245 301 313 349 16 17 19 25 23 60 358 3 4 358 356 344 333 328 322 321 316 313 306 302 299 301
333 177 179 303 272 35 334 311 297 293 312 306 292 276 274 281 242 246 261 314 283 297 347 1 7 1 3 19 28 20 8 4 353 346 342 335 330 327 321 317 313 308 303 302
40 20 355 42 308 315 282 319 299 300 289 318 299 277 293 293 307 301 315 309 278 251 286 336 351 354 359 6 11 18 17 11 1 354 346 339 333 328 324 321 317 313 308 303
74 171 39 349 345 315 309 326 326 311 303 322 322 306 294 299 315 331 327 326 304 311 336 347 354 354 357 1 12 15 12 6 359 353 343 339 332 326 322 318 315 312 311 308
339 336 30 341 359 324 322 325 316 312 307 308 312 320 309 317 316 328 333 339 341 337 357 12 22 17 8 11 13 16 10 356 349 346 339 334 328 326 322 318 314 311 310 310
302 310 313 316 317 324 315 316 315 317 318 314 320 322 325 324 329 329 330 337 345 10 18 20 11 1 359 1 354 347 343 339 338 335 333 329 326 324 322 321 318 313 310 308
302 294 304 309 309 311 314 320 316 317 318 317 325 317 319 324 325 317 301 310 326 355 354 345 339 338 340 338 336 333 331 328 328 327 326 323 321 320 319 320 318 315 311 309
302 301 309 315 305 307 306 308 312 310 310 310 314 310 317 324 325 333 318 307 312 317 326 326 327 330 328 327 326 324 322 322 323 323 322 321 319 318 317 316 315 314 314 313
303 303 313 319 322 316 314 305 312 309 312 309 313 314 320 329 340 348 337 312 305 310 310 317 322 323 325 326 325 326 327 326 326 325 324 321 318 317 316 317 317 316 315 315
299 298 298 298 305 308 305 312 305 307 306 307 312 311 311 321 326 327 311 299 303 311 316 319 321 322 324 325 326 328 327 326 325 328 327 324 320 316 312 313 313 314 313 314
303 302 303 307 304 299 302 303 305 304 295 302 307 311 326 314 313 306 302 301 303 308 313 317 319 320 322 324 326 326 325 324 325 327 329 329 326 325 318 310 313 315 313 310
300 301 297 297 301 303 302 298 294 291 301 299 298 284 306 309 307 299 300 303 307 308 309 312 314 317 321 322 323 323 323 322 325 327 328 328 328 328 324 316 314 315 312 308
296 297 297 300 301 302 296 294 291 291 293 285 293 300 332 320 310 303 297 300 305 308 306 309 314 318 321 324 324 325 326 325 327 326 325 325 325 324 323 320 318 315 314 309
289 286 286 286 294 305 301 302 300 298 294 295 275 288 302 304 295 295 296 299 303 304 304 306 310 316 321 325 328 329 329 328 326 324 321 320 322 318 318 320 320 317 312 308
283 283 286 285 287 289 290 285 285 284 287 290 294 291 296 291 288 291 291 297 299 304 305 307 310 315 320 324 327 329 328 327 326 324 321 318 320 317 314 313 312 310 308 307
284 283 289 288 290 288 289 284 285 281 282 283 286 284 294 294 292 291 289 291 295 297 301 306 311 317 321 325 327 328 327 327 326 324 323 321 320 316 315 311 306 305 301 303
278 281 286 287 293 294 290 286 281 281 279 284 284 283 301 299 297 295 293 294 295 296 301 307 312 316 320 322 326 328 328 328 327 324 322 320 320 321 321 310 307 300 298 301
276 278 283 288 293 286 293 304 296 286 286 284 286 293 299 301 304 305 302 299 300 303 307 312 315 317 319 321 323 326 326 326 325 323 322 319 314 313 304 309 312 304 306 304
267 273 283 285 283 291 293 293 295 292 292 291 289 295 298 304 311 314 320 321 314 313 315 318 318 318 318 319 321 322 324 324 324 323 321 317 317 313 294 302 306 308 308 307
268 269 275 285 287 287 298 305 305 301 290 300 295 296 295 299 297 304 312 319 319 319 320 320 321 323 323 320 320 321 324 324 323 323 320 319 313 283 286 299 305 305 309 308
271 277 272 278 284 290 290 303 312 292 299 307 306 304 300 296 304 309 315 318 322 323 323 324 324 323 323 324 324 323 324 323 324 326 329 322 307 287 286 296 304 305 310 314
273 279 279 281 286 287 293 295 285 297 305 306 310 311 312 314 315 315 317 319 320 320 322 324 325 327 330 331 327 324 324 327 328 325 324 310 288 290 306 305 310 315 320 331
275 275 282 281 287 299 303 296 302 296 297 302 306 310 312 313 315 317 318 320 320 321 323 327 328 330 330 330 327 325 326 332 337 337 296 297 292 298 296 300 310 316 335 350
279 279 282 286 287 286 292 304 306 302 300 307 311 312 314 311 314 316 318 319 319 323 325 328 329 329 328 329 329 329 329 333 342 305 290 299 288 296 299 306 323 325 332 357
281 283 282 286 289 298 294 290 295 303 309 312 317 317 316 315 316 318 320 322 324 326 329 330 329 329 329 332 336 338 335 329 321 309 296 319 320 304 301 317 316 325 325 32
278 281 282 285 289 283 289 290 299 303 304 308 310 316 324 323 322 322 322 323 325 326 327 327 327 327 330 334 332 330 324 318 313 298 304 30 330 320 314 312 320 320 320 356